Flag for Brazil Weather past 2 weeks in Maceió, Alagoas, Brazil

Now
77 °F

Scattered clouds.


Feels Like: 79 °F
Forecast: 72 / 80 °F
Wind: 12 mph from Southeast

Location: Maceio Aeroporto

Current Time: Jul 26, 2014 at 2:42:48 PM

Latest Report: Jul 26, 2014 at 2:00 PM


Visibility: N/A

Pressure: 29.98 "Hg

Humidity: 61%

Dew point: 63 °F

Location of MaceióLocation

Historic Weather in Maceió — Graph

°F

Maceió temperature yesterday

Maximum temperature yesterday: 75 °F (at 1:00 PM)
Minimum temperature yesterday: 63 °F (at 12:00 AM)
Average temperature yesterday: 67 °F

Past Weeks' High & Low Weather Summary

 TemperatureHumidityPressure
High79 °F (Jul 12, 11:00 AM)100% (Jul 11, 11:00 PM)30.15 "Hg (Jul 11, 11:00 PM)
Low63 °F (Jul 21, 2:00 AM)54% (Jul 21, 12:00 PM)29.98 "Hg (Jul 11, 2:00 PM)
Average70 °F86%30.08 "Hg
* Reported Jul 11 1:00 PM — Jul 26 1:00 PM, Maceió, Weather by CustomWeather, © 2014

Note: Actual official high and low records may vary slightly from our data, if they occured in-between our weather recording intervals... More about our weather records

Advertising

Maceió weather history for previous 24 hours

 ConditionsComfort  
Time TempWeatherWind HumidityBarometerVisibility
1:00 PM
Jul 26
77 °FScattered clouds.13 mph65%30.01 "HgN/A
12:00 PM77 °FScattered clouds.13 mph65%30.04 "HgN/A
11:00 AM75 °FScattered clouds.14 mph65%30.07 "HgN/A
10:00 AM73 °FScattered showers. Partly sunny.12 mph74%30.07 "HgN/A
9:00 AM72 °FScattered showers. Partly sunny.8 mph83%30.07 "HgN/A
8:00 AM72 °FScattered clouds.2 mph83%30.07 "HgN/A
7:00 AM64 °FScattered clouds.2 mph100%30.04 "HgN/A
6:00 AM63 °FScattered clouds.2 mph100%30.01 "HgN/A
5:00 AM63 °FPassing clouds.3 mph94%30.01 "HgN/A
4:00 AM63 °FPassing clouds.3 mph100%29.98 "HgN/A
3:00 AM63 °FPassing clouds.No wind100%29.98 "HgN/A
2:00 AM64 °FPassing clouds.No wind94%30.01 "HgN/A
1:00 AM63 °FPassing clouds.No wind100%30.04 "HgN/A
12:00 AM64 °FPassing clouds.No wind100%30.04 "HgN/A
11:00 PM
Jul 25
64 °FPassing clouds.No wind100%30.07 "HgN/A
10:00 PM66 °FPassing clouds.No wind94%30.07 "HgN/A
9:00 PM66 °FPassing clouds.3 mph94%30.04 "Hg5 mi
8:00 PM68 °FPassing clouds.6 mph94%30.04 "Hg5 mi
7:00 PM68 °FScattered showers. Passing clouds.5 mph94%30.01 "HgN/A
6:00 PM68 °FScattered showers. Passing clouds.6 mph88%30.01 "HgN/A
5:00 PM68 °FLight rain. Broken clouds.7 mph94%30.01 "HgN/A
4:00 PM73 °FScattered showers. Scattered clouds.17 mph69%29.98 "HgN/A
3:00 PM70 °FLight rain. Partly sunny.12 mph88%30.01 "Hg4 mi
2:00 PM70 °FLight rain. Fog.13 mph94%30.01 "Hg2 mi
Weather by CustomWeather, © 2014

See weather overviewHow to use our weather pages